GFSSGP_sfc_dewp_132.txt.gz
Dewpoint
74 70 69 64 57 56 44 44 41 42 46 51 56 56 58 59 55 54 64 66 70 71 72 72 74 75 74 74 75 75 75 75 75 76 76 77 77 77 76 76 76 76 75 75 75 75 75 75 74
67 66 65 62 53 44 47 48 48 49 51 53 54 56 57 59 63 63 65 69 70 72 72 73 75 74 74 74 75 76 75 75 76 76 77 77 77 77 76 76 76 76 74 74 74 74 75 75 74
68 66 60 58 55 47 49 51 52 50 50 51 53 56 59 61 64 65 66 68 70 71 73 72 75 74 74 74 75 76 76 75 76 77 77 77 77 77 75 75 75 75 75 74 74 73 74 75 75
63 64 61 53 51 52 49 49 51 50 50 51 54 56 61 63 63 66 66 67 69 71 73 75 76 75 74 74 75 77 76 77 77 77 77 77 77 76 75 75 75 75 75 75 74 72 73 74 74
65 61 55 53 52 51 49 51 53 53 50 54 55 57 59 62 65 66 65 65 68 71 74 75 76 76 76 76 76 77 76 77 77 77 76 77 77 76 76 75 75 75 75 75 74 73 73 73 74
60 63 55 51 51 51 48 52 53 50 53 55 58 57 59 63 64 64 64 66 70 72 73 75 77 77 76 76 76 76 76 77 77 77 77 77 76 75 76 76 75 75 75 75 75 73 72 73 73
59 58 54 53 50 43 46 52 53 47 47 53 57 57 59 62 63 64 67 69 70 72 73 73 75 75 76 76 76 77 77 77 77 77 77 76 75 75 75 75 75 74 74 75 75 74 72 71 72
61 58 52 50 41 34 46 51 52 46 47 56 57 55 57 60 61 68 69 69 69 71 73 74 74 74 75 75 77 77 77 77 77 76 75 75 75 75 75 77 76 74 75 74 74 73 73 73 73
60 54 50 43 34 35 39 42 49 51 53 54 54 57 58 59 66 67 68 69 70 71 73 74 73 74 75 75 75 77 77 77 76 74 75 76 73 74 74 75 75 74 74 74 75 73 74 74 74
49 44 43 34 35 34 27 36 48 51 53 54 53 56 57 63 64 65 66 68 69 70 71 73 73 73 74 74 74 75 74 74 74 74 74 74 73 73 73 75 75 75 74 74 74 74 73 73 72
36 41 33 32 26 24 23 24 53 51 52 52 53 55 59 61 62 63 65 66 67 69 70 71 71 72 73 73 74 74 74 74 73 74 73 73 73 73 74 74 73 73 74 73 74 74 73 73 73
28 30 30 25 23 25 26 24 38 54 53 53 55 55 56 61 61 60 63 64 66 67 68 70 71 72 72 73 73 73 73 73 73 73 73 73 73 72 72 73 73 72 73 73 73 73 72 71 71
28 28 28 26 23 21 22 22 27 49 53 54 54 55 55 57 61 61 62 64 65 65 67 69 70 71 71 72 72 72 72 72 72 73 73 73 71 71 72 73 73 73 72 73 72 71 71 70 69
28 28 28 25 25 25 21 24 28 53 53 53 53 54 54 54 56 60 62 64 65 65 66 67 69 70 71 72 71 71 71 71 71 73 73 74 71 71 72 71 72 72 72 72 71 71 70 69 68
24 26 27 25 24 20 20 19 23 53 52 52 52 53 54 54 55 55 60 63 64 65 67 68 69 70 70 72 71 70 70 72 71 73 73 73 72 71 72 71 71 71 71 71 69 70 70 69 68
22 27 24 24 21 20 21 19 23 53 51 51 52 52 53 54 54 55 57 61 63 63 68 70 70 71 70 72 72 71 71 72 71 72 72 72 73 73 72 71 70 70 70 71 70 69 70 69 66
28 26 23 23 19 18 22 24 31 24 50 51 51 52 52 53 54 55 58 60 61 67 69 70 70 71 71 72 72 72 69 71 71 72 73 72 72 72 72 71 71 71 70 70 69 68 69 68 67
19 16 17 20 18 23 23 22 30 36 37 50 52 52 53 53 53 56 62 64 65 69 69 69 70 71 71 71 71 70 70 69 69 72 73 72 72 72 71 71 71 71 71 70 69 68 68 67 67
19 17 19 20 19 18 23 26 35 36 41 52 53 54 54 54 59 62 66 66 65 68 70 70 69 71 71 71 70 69 68 69 69 69 72 72 72 72 71 71 71 71 71 70 69 68 68 66 68
20 19 17 23 23 16 21 25 33 43 47 54 56 55 57 60 62 63 66 65 65 66 68 70 69 70 71 70 70 69 69 69 69 69 70 72 72 73 71 71 71 70 70 70 70 69 68 67 69
21 21 22 23 21 19 19 24 33 42 52 55 58 59 60 61 62 64 65 66 64 66 69 69 69 70 70 71 71 71 71 70 68 68 68 72 72 72 72 71 70 70 69 69 70 68 68 66 69
25 24 23 22 20 17 21 16 30 40 46 54 57 59 60 61 62 64 64 67 66 67 68 71 70 70 71 72 71 70 68 68 68 68 68 68 73 72 72 71 71 69 69 69 69 70 69 68 66
23 26 24 26 20 19 21 20 28 39 45 49 54 58 59 61 61 61 65 68 68 69 69 70 72 71 71 71 72 71 70 69 70 71 70 69 70 73 72 72 71 70 69 69 69 70 71 70 67
26 24 24 27 22 20 22 23 30 37 43 46 49 55 58 58 58 59 63 64 67 69 71 71 72 72 72 71 72 72 71 71 71 71 71 70 71 71 72 72 71 71 71 70 70 69 71 71 71
24 24 22 22 25 22 27 28 30 36 44 46 49 52 55 56 57 58 59 59 59 62 68 72 72 71 73 74 73 73 72 71 72 71 71 71 69 70 70 71 71 71 71 71 71 71 71 71 71
23 21 21 23 22 23 28 31 36 42 44 47 49 51 53 55 57 59 59 60 60 60 61 64 67 66 70 73 73 74 72 73 73 73 72 72 71 70 70 70 71 71 71 70 70 69 70 71 71
23 23 24 21 26 20 26 34 36 39 39 41 45 51 53 55 57 59 59 59 60 60 61 63 64 64 65 66 67 69 72 72 73 73 73 73 73 72 71 71 70 70 71 71 71 71 70 70 71
21 23 18 22 20 20 26 33 34 38 37 44 46 47 48 49 51 53 55 57 58 58 59 60 62 65 66 67 68 69 70 71 72 72 71 71 73 73 73 72 71 69 71 71 71 71 71 71 70
23 23 27 25 24 23 25 31 40 38 39 41 42 44 46 51 51 53 54 54 55 58 58 59 60 61 63 66 67 67 67 68 70 70 70 71 71 72 73 73 73 72 69 71 72 72 71 70 71
26 22 27 26 23 26 27 26 34 39 38 39 43 46 51 51 51 52 53 55 56 56 57 59 60 62 64 64 65 66 67 68 68 68 68 69 70 71 71 72 72 73 72 70 71 71 71 71 71

GFSSGP_sfc_dewp_135.txt.gz
Dewpoint
72 72 72 64 52 50 45 45 46 44 49 55 58 59 60 60 56 51 65 69 71 71 73 73 75 75 75 75 75 75 76 76 76 76 76 77 77 75 76 76 75 74 75 75 75 75 75 74 73
70 67 65 60 50 44 44 49 48 50 53 56 56 58 59 60 63 63 65 70 71 72 72 73 75 75 75 75 75 75 75 75 76 76 77 77 77 76 76 75 74 74 74 74 75 75 74 74 74
69 67 59 57 52 45 48 52 50 51 53 52 55 59 61 62 63 64 68 71 72 71 73 73 75 74 75 75 76 75 74 75 75 77 77 77 76 75 75 75 74 74 74 74 74 74 75 74 74
65 61 59 51 48 51 50 50 52 50 50 54 58 59 62 65 64 66 69 71 71 72 72 74 75 74 75 75 76 77 76 76 76 77 77 76 76 75 75 75 75 75 74 73 72 73 74 74 74
63 58 52 49 50 52 51 51 53 50 54 56 57 58 60 64 66 67 68 69 71 72 72 72 75 74 75 76 77 76 77 77 76 76 76 76 76 76 75 75 75 74 75 74 73 73 74 73 73
59 59 51 47 49 51 49 51 53 51 55 58 59 58 60 65 64 65 66 68 71 73 72 73 76 76 76 76 75 76 76 76 76 76 76 76 75 75 75 75 75 75 74 74 74 73 73 74 73
56 55 52 52 51 49 48 52 52 53 54 56 59 58 61 64 64 63 65 69 72 73 73 73 73 74 76 76 76 77 77 77 76 77 77 76 75 75 76 75 75 74 74 75 74 74 72 73 73
60 56 52 51 47 44 48 51 53 47 51 58 59 58 60 63 64 64 67 69 71 72 73 74 74 73 74 74 77 77 77 77 77 76 75 75 74 74 74 76 76 74 74 74 73 73 73 72 73
60 54 53 52 44 36 50 48 47 50 55 56 57 59 61 63 65 68 68 68 70 71 73 73 74 75 74 74 75 77 76 76 75 74 75 75 73 73 74 75 75 74 74 74 74 73 73 73 73
55 52 52 52 39 39 49 47 47 53 54 55 57 60 62 64 67 67 67 67 68 71 72 73 73 74 74 74 74 75 74 74 73 73 73 74 73 73 74 74 75 74 74 73 74 74 73 72 72
51 45 44 42 27 25 41 46 51 53 52 54 57 58 63 65 66 67 67 67 68 70 72 73 73 73 74 73 74 74 74 74 74 74 74 73 73 73 73 74 73 73 74 73 74 73 73 72 72
28 42 32 25 23 24 30 48 52 52 53 54 58 59 63 64 65 65 66 66 68 69 70 72 73 73 73 73 74 74 73 74 73 73 73 73 72 72 72 73 73 72 73 72 73 73 73 71 71
27 27 26 28 25 22 23 46 52 52 54 55 57 61 61 62 63 64 65 66 68 68 69 71 71 72 72 72 73 72 73 73 73 73 73 73 72 72 72 72 73 72 72 72 72 72 71 71 70
25 25 25 28 26 26 20 36 49 54 54 55 57 59 60 61 62 63 63 63 66 66 67 70 70 71 71 72 72 72 72 72 72 73 73 73 72 71 72 72 72 72 72 72 72 71 71 70 70
23 24 26 27 28 23 20 28 47 53 54 54 55 57 59 60 61 61 63 63 64 64 66 68 69 71 71 72 71 71 71 71 71 72 72 73 72 71 71 71 71 72 72 72 71 71 71 70 69
23 26 25 25 22 21 19 18 51 53 53 53 54 54 56 59 61 61 63 63 64 63 66 67 69 70 69 72 71 70 70 71 71 71 72 72 73 72 71 71 70 71 71 71 70 69 69 69 69
23 24 25 24 21 19 22 20 51 52 52 52 53 54 54 54 57 60 63 65 65 65 66 67 68 69 69 71 72 71 70 71 71 71 72 72 72 73 71 71 71 70 70 70 70 69 68 68 68
22 16 19 23 18 23 21 21 50 52 51 52 52 53 53 54 54 56 60 64 66 66 67 68 69 70 70 70 72 72 70 70 71 71 72 72 72 72 72 71 71 71 70 69 69 68 68 68 67
28 20 18 23 21 22 23 29 38 51 51 51 51 52 52 53 54 58 62 64 65 66 68 69 70 70 70 70 70 70 70 69 69 71 72 73 72 72 71 71 70 70 70 69 70 69 68 67 67
26 18 20 20 20 20 26 27 36 45 50 51 51 52 52 53 56 59 63 64 66 68 68 69 70 70 71 70 69 70 69 68 69 69 71 72 72 71 71 70 70 70 70 70 69 68 67 67 68
23 20 22 23 22 19 25 27 34 49 55 54 52 52 53 54 57 59 64 63 65 68 69 69 70 70 70 70 70 70 70 70 68 68 68 70 72 72 72 71 70 70 70 69 70 69 68 67 67
35 24 23 22 20 16 22 22 32 42 54 57 58 56 55 56 60 61 65 65 64 65 69 70 71 70 71 71 70 69 68 67 68 68 68 68 72 72 72 72 71 70 70 70 69 69 69 67 66
21 25 24 25 20 29 21 20 31 46 52 55 58 60 61 62 61 63 65 66 65 67 68 71 70 70 70 71 70 70 69 69 69 69 70 70 70 72 72 72 71 71 70 69 69 69 69 69 67
26 25 25 28 23 20 21 22 27 43 51 53 57 59 61 61 63 64 66 67 67 69 69 71 71 70 70 70 71 71 70 70 69 70 70 70 71 70 72 72 72 71 71 69 69 68 68 69 69
24 22 20 22 23 22 26 27 29 37 48 55 55 58 59 59 62 64 66 67 68 69 70 70 71 71 71 71 71 71 71 72 71 70 71 71 71 70 71 72 72 72 72 72 71 70 69 70 70
23 21 21 22 20 22 29 32 34 40 47 51 56 57 57 57 58 62 63 64 65 67 69 70 70 70 71 72 72 73 72 72 72 72 72 72 72 72 71 70 71 72 72 72 71 71 71 70 70
25 22 23 21 25 19 23 34 39 42 46 48 50 54 55 56 58 59 59 60 61 62 64 66 69 68 67 70 71 72 73 72 72 72 72 72 72 72 72 71 71 70 71 72 71 71 70 70 70
22 22 18 20 19 22 24 31 34 37 42 46 50 53 55 56 57 59 59 59 59 60 60 61 63 63 64 65 66 67 67 69 70 71 70 70 71 72 73 72 72 71 70 71 71 69 70 70 70
23 23 26 23 23 22 23 30 37 37 42 45 49 52 53 52 54 55 56 57 58 59 60 60 61 61 62 64 66 66 67 67 68 68 69 69 70 70 70 71 72 72 72 70 71 71 70 70 70
25 24 27 26 26 26 24 23 33 37 40 44 45 47 51 52 53 53 54 56 56 56 57 58 60 61 63 63 64 64 65 65 65 65 65 66 67 68 69 70 70 70 72 71 70 70 72 71 70

GFSSGP_sfc_dewp_138.txt.gz
Dewpoint
72 72 73 63 48 48 44 44 48 47 50 57 59 57 59 61 57 49 66 69 71 72 72 73 75 74 74 74 75 75 77 76 77 77 77 76 75 75 76 75 75 75 75 75 74 75 75 73 72
71 71 65 59 47 40 41 48 47 49 55 57 58 60 60 61 62 64 67 70 71 72 73 72 75 75 75 74 75 76 76 76 77 77 77 76 75 76 76 75 74 75 75 74 74 74 73 73 73
68 66 58 55 50 42 44 51 50 52 54 54 57 61 61 61 63 65 69 71 71 72 72 73 75 75 75 75 75 76 76 76 76 76 76 75 75 76 75 74 74 74 74 74 74 72 73 74 74
66 60 57 49 47 49 49 49 51 50 54 57 59 59 63 64 64 68 70 71 71 72 72 74 75 75 75 75 75 75 76 76 76 77 76 75 75 75 75 75 74 74 73 73 74 74 73 73 73
63 56 49 46 47 50 52 51 54 50 56 59 58 59 62 65 68 69 70 71 71 71 72 73 75 75 75 76 76 76 76 76 77 77 76 76 75 75 75 75 75 75 74 73 73 73 74 73 73
56 56 47 44 46 49 50 51 53 54 57 58 59 59 62 66 66 68 69 70 71 71 72 73 75 76 77 76 76 77 76 76 76 76 75 75 75 75 75 74 74 75 75 74 73 73 73 72 73
55 54 51 50 50 49 48 52 51 54 56 57 60 59 63 63 65 67 68 71 72 72 72 72 73 74 75 76 77 76 77 76 77 77 77 76 74 75 75 75 75 74 74 75 73 73 74 73 72
58 56 51 50 46 44 49 51 51 53 54 59 60 59 60 63 64 66 69 71 72 72 72 72 73 74 73 73 76 77 77 77 76 75 75 74 74 74 75 76 76 74 74 74 74 73 72 73 72
59 53 51 51 50 44 50 49 49 51 56 57 58 60 62 64 64 67 68 70 71 72 72 73 73 74 74 74 74 77 77 76 75 74 73 75 74 74 74 74 74 73 73 73 73 73 73 72 72
54 52 48 53 51 43 50 49 47 53 55 57 59 62 63 63 66 66 66 68 69 70 72 73 74 73 74 74 74 75 74 74 74 73 74 74 74 74 74 75 74 74 73 73 74 74 73 72 73
53 48 46 44 45 45 48 47 52 53 53 56 59 61 62 65 65 66 66 67 68 70 72 73 73 74 74 74 75 75 74 74 74 74 74 74 74 75 75 75 73 74 74 73 74 74 73 72 72
40 43 47 32 25 38 46 48 51 53 53 57 61 62 63 65 65 66 66 67 68 70 72 72 73 73 74 74 74 74 74 74 74 74 74 74 73 73 73 73 74 74 74 73 73 74 73 72 71
28 27 29 28 26 25 48 49 52 52 55 59 61 62 64 65 65 66 66 66 68 69 71 72 72 72 73 73 74 74 74 74 74 74 74 74 73 73 73 73 73 73 73 73 73 73 72 72 72
26 24 24 27 28 28 44 47 52 53 57 58 60 62 63 64 65 66 66 66 68 68 70 71 72 72 72 72 72 72 73 74 73 74 74 73 73 72 72 72 72 73 73 73 73 72 72 71 71
24 23 26 28 26 21 33 40 43 54 56 57 59 61 62 63 64 64 65 65 67 68 69 70 71 71 71 72 72 72 72 72 72 72 73 73 73 72 72 72 72 73 73 72 72 72 72 71 71
26 25 24 25 23 20 22 22 53 54 55 57 59 59 60 61 62 63 64 64 66 66 67 69 70 71 71 72 72 71 71 71 72 72 72 73 73 73 72 71 71 72 72 72 72 71 70 70 70
22 20 26 24 24 20 20 19 52 54 54 55 57 58 59 60 61 62 63 64 64 64 66 68 69 70 70 71 72 71 71 71 71 72 72 72 73 73 72 72 72 72 71 71 71 70 70 69 69
21 18 24 24 20 20 21 25 52 52 53 54 54 55 57 58 60 61 64 66 66 66 66 68 68 69 70 70 72 72 71 70 71 71 71 72 72 73 73 72 72 72 71 70 70 70 70 69 69
27 24 20 20 23 21 23 32 51 52 52 52 53 54 55 55 57 60 63 66 67 67 68 68 69 69 70 70 70 70 70 71 70 71 72 72 72 72 73 72 72 71 71 70 70 70 70 69 69
29 25 19 20 20 22 32 32 42 51 51 52 52 53 54 54 56 59 62 64 66 66 67 68 69 70 70 70 70 71 71 71 71 71 71 72 73 73 72 72 71 71 71 70 70 70 69 69 70
27 20 21 20 22 23 32 33 36 52 52 52 52 53 54 53 54 58 62 63 65 66 68 69 69 70 71 71 71 71 71 70 70 70 70 70 72 73 72 72 71 71 71 70 70 70 70 68 69
33 24 24 20 19 18 27 29 31 45 53 55 51 52 52 54 56 58 63 64 65 66 69 69 70 70 71 71 70 70 69 68 69 69 71 70 71 72 73 72 72 71 71 70 70 70 70 70 68
22 24 25 25 20 19 22 25 33 48 51 56 57 53 53 55 58 60 63 63 65 66 69 70 71 70 71 71 71 70 70 70 71 70 71 71 71 72 72 73 73 72 72 71 71 71 70 69 68
25 24 24 28 23 20 25 20 26 43 49 55 59 59 60 61 61 63 65 65 65 67 68 70 70 70 70 71 71 71 70 70 70 70 70 71 71 71 72 73 73 73 72 72 71 71 71 70 70
22 22 20 20 22 22 27 27 28 36 51 56 59 60 61 62 63 65 66 66 66 67 68 70 70 69 70 70 70 71 71 71 71 71 71 72 72 72 72 72 73 73 72 72 71 70 70 70 70
23 21 20 21 19 21 29 31 34 42 45 57 60 60 60 61 63 65 66 66 67 68 69 70 70 70 71 71 71 71 71 72 72 72 72 72 72 73 73 72 72 73 73 73 73 72 70 70 70
25 22 23 22 21 20 22 33 42 45 51 56 56 58 59 60 61 64 65 66 67 68 69 70 70 70 70 71 72 72 72 72 73 73 73 73 73 73 73 73 72 72 72 73 73 72 72 71 71
22 23 19 20 20 22 22 31 34 43 47 53 53 56 58 59 59 61 62 62 63 63 64 66 67 68 67 66 67 68 68 68 70 71 71 71 72 72 72 72 73 72 72 72 72 72 72 70 71
22 24 25 23 22 18 22 28 37 41 44 49 52 55 57 57 58 59 59 60 61 60 61 62 63 64 64 65 66 67 67 68 68 69 69 69 70 69 69 69 70 71 72 72 72 72 72 71 70
27 25 27 26 24 25 23 24 34 37 43 48 50 54 55 56 56 57 58 58 59 59 61 61 62 62 64 65 65 64 65 66 66 66 66 67 66 67 67 68 68 69 71 72 71 71 72 70 70

GFSSGP_sfc_dewp_144.txt.gz
Dewpoint
70 70 68 65 52 36 38 41 43 39 47 55 56 55 57 58 57 57 64 68 68 70 72 74 75 74 75 76 76 77 77 77 77 77 77 77 77 77 76 76 76 76 76 76 75 74 73 74 74
67 68 66 59 39 31 38 43 46 48 49 52 54 54 55 58 62 63 66 69 69 71 73 74 75 75 75 76 77 77 77 77 77 77 77 77 77 77 76 76 75 76 75 75 74 73 74 75 75
68 66 59 48 36 36 37 45 49 50 50 49 54 58 58 60 62 64 67 69 70 70 72 74 75 75 74 75 77 77 77 77 76 78 77 77 77 76 75 76 75 75 74 73 73 74 73 74 74
66 63 56 39 35 43 44 46 47 47 49 52 54 56 61 64 63 65 67 68 70 70 73 75 74 74 74 76 77 77 77 77 77 77 77 77 76 75 74 74 75 75 74 73 74 74 74 74 74
60 54 41 37 37 43 47 48 49 46 50 52 53 57 61 65 65 67 67 68 69 71 73 74 75 75 75 76 77 77 78 77 77 77 77 76 76 76 75 74 73 74 75 74 73 74 74 73 72
56 55 39 34 38 43 46 48 47 45 49 54 56 58 63 65 65 66 67 67 68 71 72 73 73 74 74 75 76 77 77 76 76 76 76 76 76 75 75 75 74 73 74 74 74 74 73 73 72
49 47 45 39 38 40 45 47 47 48 45 49 54 58 63 63 65 67 67 67 67 71 72 74 73 73 73 73 75 76 76 76 77 76 75 75 75 75 75 75 75 74 73 73 74 73 73 73 72
50 46 36 36 36 40 47 47 49 48 50 55 55 54 60 63 65 65 66 67 69 69 70 72 72 72 74 74 74 76 76 76 74 74 74 74 75 75 74 75 75 74 74 73 72 73 73 72 72
52 37 34 36 35 39 47 46 51 52 54 56 54 55 60 62 63 63 64 66 69 68 67 70 68 70 74 75 75 76 76 75 74 73 73 73 68 70 71 74 73 74 73 73 73 72 72 72 72
37 29 30 33 36 38 43 45 49 50 54 54 57 59 61 61 62 62 63 63 65 65 66 64 65 70 67 71 76 77 72 67 71 70 71 68 70 72 70 72 73 73 73 73 74 73 73 71 64
36 27 31 29 29 38 42 46 48 47 47 52 56 59 59 60 61 61 62 62 63 64 63 66 66 67 65 66 74 74 75 74 71 73 72 71 72 72 70 69 69 70 73 68 69 73 67 63 63
30 29 28 27 28 33 42 47 47 50 50 54 56 58 58 58 58 59 61 63 64 64 64 65 67 68 69 68 69 74 74 71 69 71 74 74 71 72 72 70 70 72 70 72 71 66 68 67 65
28 28 27 25 23 32 45 45 48 52 54 54 56 57 57 56 57 58 60 62 64 65 66 67 70 71 72 73 70 70 70 71 71 73 74 73 71 72 71 72 71 72 71 70 72 70 69 68 67
27 26 26 26 26 38 39 46 48 54 56 54 55 56 56 56 57 58 59 60 63 65 67 68 70 72 72 72 73 72 72 72 71 70 72 74 72 73 71 71 70 73 76 75 73 71 70 70 67
26 25 25 27 26 35 39 43 44 55 56 54 53 54 55 57 58 59 59 61 62 65 67 68 70 72 73 74 73 73 70 69 68 68 73 74 76 75 75 72 71 70 75 75 73 73 71 70 69
24 26 20 23 24 35 36 34 50 55 54 53 52 54 56 57 58 59 61 62 63 64 67 69 67 69 72 73 72 70 69 70 69 69 69 72 74 74 73 71 71 72 73 72 72 72 71 70 69
23 18 20 21 22 27 27 33 50 53 53 54 55 55 56 58 60 62 62 62 63 66 68 70 70 69 71 73 72 72 73 71 68 68 68 71 73 73 73 71 72 75 72 72 71 71 72 70 70
19 19 19 20 21 21 20 36 49 51 52 52 55 56 56 57 59 62 64 64 65 66 68 70 70 72 73 72 73 70 69 70 69 69 68 70 71 73 73 71 73 76 72 72 72 72 72 71 69
24 21 21 22 22 21 20 32 45 50 51 52 53 56 56 57 58 60 62 64 65 67 69 70 71 73 72 70 68 67 66 67 68 69 72 73 73 73 74 71 72 72 72 75 75 74 73 70 71
25 22 22 22 22 23 23 27 40 48 49 51 52 54 55 56 58 60 62 63 64 66 69 70 71 73 73 69 70 68 67 67 68 70 72 73 74 74 74 75 73 72 70 72 75 76 73 69 75
23 21 23 20 25 25 24 30 39 45 48 49 51 53 53 55 57 60 62 63 63 65 68 70 72 72 73 72 70 71 71 71 69 70 70 72 74 75 76 75 77 75 76 69 73 76 73 69 76
21 22 20 20 22 18 27 19 31 34 43 47 49 52 53 54 56 59 61 63 64 64 67 70 73 74 73 74 73 74 70 70 67 71 71 73 74 74 74 74 75 76 72 74 72 74 77 76 68
23 23 22 22 20 22 22 17 27 33 34 37 43 49 51 54 55 56 59 61 62 63 65 69 73 75 75 75 75 72 73 70 70 72 74 75 76 75 75 74 75 77 76 76 74 74 74 71 72
26 25 25 24 20 20 23 20 21 25 30 30 36 44 50 52 55 56 58 61 62 62 63 66 72 75 75 75 75 76 75 74 72 71 71 69 67 68 73 74 76 77 76 75 76 77 76 74 74
25 23 21 20 18 19 29 23 25 32 36 40 39 40 48 52 54 56 58 60 63 63 64 66 71 74 74 74 74 75 76 76 76 75 69 70 64 61 70 74 75 73 74 74 77 76 75 76 75
23 22 20 23 19 23 31 25 31 39 42 45 46 42 46 50 53 55 55 59 62 63 66 67 70 73 74 74 75 76 77 73 71 72 71 70 67 64 72 71 73 71 72 72 75 73 75 75 74
25 24 23 21 23 16 21 25 27 40 43 47 47 46 47 51 52 55 57 54 59 64 67 67 70 74 74 73 74 76 76 76 73 75 75 65 68 63 65 69 70 70 71 72 73 70 71 72 74
26 25 22 21 23 21 22 24 23 32 38 48 51 51 53 54 54 57 58 61 62 65 67 68 71 73 73 73 73 73 74 74 72 71 68 66 65 66 66 66 66 67 68 68 71 67 68 71 68
25 23 25 22 23 20 20 21 30 33 36 44 50 53 54 57 56 59 58 62 67 66 68 69 70 72 73 72 70 71 69 67 65 63 63 64 65 66 66 67 68 66 66 67 69 70 68 68 70
24 25 26 22 34 26 23 24 26 34 37 42 47 54 57 58 59 61 59 64 66 67 68 68 69 70 69 69 69 66 64 61 59 61 62 63 64 63 63 64 66 66 66 68 67 66 65 65 66

GFSSGP_sfc_dewp_147.txt.gz
Dewpoint
68 69 68 63 57 36 35 37 38 42 47 50 51 53 56 57 57 58 67 70 70 71 71 72 75 75 76 76 77 77 77 77 77 77 77 77 77 77 76 76 75 75 75 75 74 73 74 74 74
66 65 66 61 40 32 35 39 41 43 46 49 51 51 55 57 60 64 67 69 70 72 73 74 75 76 75 77 77 77 77 77 77 77 77 77 76 77 76 75 76 75 75 73 74 75 76 75 74
68 64 59 42 34 33 36 42 44 44 46 47 52 56 57 60 62 66 68 69 71 72 74 74 74 74 75 76 77 77 77 77 76 77 77 77 77 77 76 75 75 74 73 73 74 74 74 74 74
64 63 59 33 32 35 39 41 37 41 46 49 53 57 61 64 63 66 68 69 71 71 73 73 74 73 74 77 77 77 77 77 77 77 77 77 76 76 75 75 75 74 74 74 74 74 75 75 74
61 54 42 33 33 35 40 41 42 42 46 49 54 59 61 63 66 67 68 68 70 71 73 73 74 74 75 76 78 77 76 77 77 77 76 77 76 75 74 74 75 75 75 74 74 74 74 73 73
55 51 37 33 34 36 39 40 41 44 49 52 56 58 62 64 65 66 70 69 69 71 73 73 73 73 75 75 76 77 75 77 77 76 76 75 75 75 75 74 73 74 75 75 74 73 73 73 73
49 38 39 34 32 35 39 39 38 40 44 47 53 57 62 63 66 66 69 70 71 72 72 73 73 71 69 68 74 75 76 76 77 76 76 75 75 75 75 75 74 73 73 74 74 73 72 72 71
46 39 33 32 31 34 38 39 42 45 49 52 54 55 61 63 65 67 69 69 71 71 72 71 72 72 72 73 71 72 76 76 75 74 73 75 75 74 74 76 76 75 73 72 73 73 72 71 71
44 33 32 32 34 36 38 38 46 49 46 48 52 57 59 64 63 64 65 66 67 71 71 71 68 71 72 72 67 71 75 74 74 73 72 74 69 72 71 74 74 74 73 73 72 71 71 72 72
35 26 26 26 31 35 36 38 43 47 48 51 55 58 59 61 63 62 63 65 64 66 70 68 66 70 71 70 75 76 72 69 70 72 69 70 71 72 69 72 73 73 73 74 74 74 72 70 63
28 26 26 23 28 35 35 37 41 41 46 50 54 57 58 58 61 62 63 64 63 63 62 64 62 65 65 69 75 76 76 73 70 72 71 72 70 72 68 71 72 75 74 74 72 72 70 62 62
28 26 23 21 24 35 37 38 37 40 46 50 54 56 57 57 60 60 61 62 60 62 64 64 65 67 66 65 69 75 73 72 72 71 72 74 69 71 70 72 69 73 71 69 69 66 69 65 64
26 26 24 21 23 35 37 37 43 46 47 51 53 55 55 56 57 60 62 60 61 63 63 67 68 70 71 72 70 73 74 72 73 72 71 71 71 76 70 69 69 70 70 70 71 69 68 69 66
27 26 24 23 26 34 35 38 45 48 48 51 52 53 53 55 56 58 59 60 61 62 64 64 67 70 71 71 73 76 72 74 73 70 72 75 73 76 71 71 70 71 73 73 73 71 71 69 67
25 23 23 22 26 32 32 35 44 49 48 50 51 52 53 54 55 57 59 61 62 63 63 67 68 69 71 72 72 72 69 68 67 67 72 74 75 75 75 71 70 70 74 75 75 74 71 69 67
21 22 19 22 24 28 32 34 46 49 48 49 51 51 53 54 55 57 58 60 62 62 65 67 65 68 71 72 71 70 68 68 67 67 67 72 73 74 73 70 70 71 73 73 73 72 71 70 68
20 19 18 19 21 26 29 34 44 48 48 49 51 51 51 53 56 58 58 59 61 63 67 68 68 67 70 72 71 72 73 70 68 66 66 69 71 72 73 70 70 75 72 72 71 73 74 72 71
18 19 17 19 19 21 25 33 39 45 47 49 50 52 53 53 54 57 58 59 61 64 67 69 69 71 72 71 73 70 69 70 69 68 68 69 70 72 73 71 73 76 78 72 72 74 71 71 70
22 18 19 20 19 19 22 33 38 41 43 47 51 53 54 55 56 58 58 59 60 62 66 69 70 75 72 70 68 68 66 69 69 71 72 72 72 72 74 71 70 72 75 74 76 73 75 74 75
22 20 21 19 19 21 21 27 37 39 41 43 47 53 53 53 56 59 60 61 62 64 67 69 71 74 73 70 73 70 68 66 69 74 74 72 73 73 73 76 75 73 71 76 76 77 74 70 75
21 21 22 20 19 18 21 24 34 38 39 43 45 49 51 51 54 58 60 62 62 64 67 70 73 74 75 75 71 71 72 71 69 69 71 73 75 75 76 74 75 77 77 70 77 76 75 70 75
21 19 20 18 20 17 21 19 31 35 38 40 44 46 48 50 53 58 60 61 62 63 66 69 73 75 74 75 74 77 70 74 69 70 74 72 74 74 74 76 76 78 78 76 74 75 76 76 69
21 21 19 19 18 20 23 17 27 31 35 38 39 44 47 50 50 54 58 62 62 63 64 68 75 76 76 76 76 72 74 69 66 65 73 78 77 76 73 73 74 77 78 76 76 77 77 77 74
21 22 21 21 18 18 22 17 25 25 30 30 37 41 46 48 50 51 55 60 62 62 64 67 75 77 76 76 76 77 75 73 68 69 65 62 60 60 74 70 73 75 75 76 74 77 77 76 76
21 19 21 20 17 18 23 21 23 28 32 34 32 37 44 48 49 50 52 56 59 60 62 65 73 74 75 75 75 75 76 76 75 73 64 66 60 59 73 75 76 71 76 75 76 76 75 76 75
22 21 20 24 19 19 28 25 23 34 35 39 40 37 40 45 48 50 50 53 56 57 61 64 70 74 75 74 75 76 77 73 71 74 67 63 60 60 71 69 71 72 73 74 75 69 69 74 73
23 22 21 21 23 19 22 25 24 33 31 39 40 38 38 44 47 50 50 50 54 56 60 64 69 73 74 74 75 76 76 76 74 74 74 67 69 61 65 66 67 69 69 72 74 67 71 71 72
23 23 21 19 25 22 20 23 26 33 32 39 43 42 41 45 46 49 51 51 53 54 58 63 67 73 73 72 73 74 76 76 75 74 72 67 65 66 65 65 64 67 69 69 71 66 67 69 66
21 23 24 20 23 21 20 23 33 32 31 35 42 46 47 48 49 49 51 52 52 53 58 63 65 71 71 71 72 74 73 72 72 68 64 64 65 66 66 68 68 67 67 68 70 71 71 69 70
21 23 24 22 30 23 23 23 26 30 29 29 33 44 49 50 50 52 56 55 59 59 60 63 66 69 72 73 72 71 70 68 64 63 62 63 65 65 66 66 67 67 67 69 69 69 67 68 68